マスター彗星

C/2020 F5 ( MASTER )

English version
Home page
Updated on September 6, 2020

---------------------------------------------------------------------

・ プロフィール

発見日 2020年3月28日
発見光度 15.8等
発見者 Mobile Astronomical System of the Telescope-Robots (MASTER) auto-detection system near San Juan, Argentina

・ 写真集

・ 軌道要素

Epoch 2021 Mar. 7.0 TT = JDT 2459280.5
T 2021 Mar. 24.21737 TT                                 Rudenko
q   4.3262219            (2000.0)            P               Q
z  -0.0007406      Peri.  311.06049     +0.57201138     +0.81023000
 +/-0.0000133      Node   350.62931     -0.28570032     +0.05076586
e   1.0032038      Incl.   51.70679     -0.76888120     +0.58390939
From 182 observations 2020 Mar. 16-Aug. 31, mean residual 0".6.

・ 星図

・ 光度変化

        m1 = 5.3 + 5 logΔ + 10.0 log r

---------------------------------------------------------------------

軌道要素はM.P.E.C. 2020-R04に掲載されたものです。
星図はステラナビゲータ Ver.10 (アストロアーツ) で作成したものです。
光度グラフはComet for Windowsで作成したものです。

---------------------------------------------------------------------

Copyright(C) Seiichi Yoshida (comet@aerith.net). All rights reserved.